When you browse on this site, cookies collect data to enhance your experience and personalize the content and advertising you see.
Visit our Privacy Policy to learn more. By continuing to use the site, you agree to this use of cookies and data.
  • In Romania
  • List of Countries
  • For 7 days
  • Water Temperature
  • Satellite Maps
  • Weather Map
  • Weather Widgets
  • user-avatar
    Login

    Hourly Weather Sartrouville

    Today, 20 June, Thursday

    Time Temperature Precipitation Wind Pressure Humidity
    00:00 +18°C° 0 mm 1 mps 754 mmHg 80%
    01:00 +18°C° 0 mm 1 mps 754 mmHg 81%
    02:00 +16°C° 0 mm 1 mps 754 mmHg 83%
    03:00 +16°C° 0 mm 2 mps 754 mmHg 84%
    04:00 +16°C° 0.1 mm 2 mps 754 mmHg 84%
    05:00 +16°C° 0.1 mm 2 mps 755 mmHg 84%
    06:00 +16°C° 0 mm 3 mps 755 mmHg 87%
    07:00 +16°C° 0.1 mm 3 mps 755 mmHg 85%
    08:00 +17°C° 0.1 mm 3 mps 756 mmHg 83%
    09:00 +17°C° 0.1 mm 3 mps 756 mmHg 81%
    10:00 +18°C° 0 mm 3 mps 756 mmHg 72%
    11:00 +20°C° 0 mm 4 mps 756 mmHg 62%
    12:00 +21°C° 0 mm 4 mps 756 mmHg 53%
    13:00 +21°C° 0 mm 4 mps 756 mmHg 52%
    14:00 +21°C° 0 mm 4 mps 756 mmHg 51%
    15:00 +22°C° 0 mm 4 mps 756 mmHg 49%
    16:00 +21°C° 0 mm 4 mps 757 mmHg 52%
    17:00 +21°C° 0 mm 3 mps 757 mmHg 54%
    18:00 +20°C° 0 mm 3 mps 757 mmHg 57%
    19:00 +19°C° 0 mm 3 mps 757 mmHg 62%
    20:00 +17°C° 0 mm 2 mps 758 mmHg 67%
    21:00 +16°C° 0 mm 2 mps 758 mmHg 72%
    22:00 +16°C° 0 mm 2 mps 758 mmHg 74%
    23:00 +15°C° 0 mm 2 mps 759 mmHg 75%

    Tomorrow, 21 June, Friday

    Time Temperature Precipitation Wind Pressure Humidity
    00:00 +14°C° 0 mm 1 mps 759 mmHg 77%
    01:00 +14°C° 0 mm 1 mps 759 mmHg 78%
    02:00 +14°C° 0 mm 1 mps 759 mmHg 79%
    03:00 +13°C° 0 mm 1 mps 759 mmHg 80%
    04:00 +14°C° 0 mm 1 mps 759 mmHg 79%
    05:00 +14°C° 0 mm 1 mps 760 mmHg 77%
    06:00 +15°C° 0 mm 1 mps 760 mmHg 75%
    07:00 +16°C° 0 mm 1 mps 760 mmHg 67%
    08:00 +19°C° 0 mm 1 mps 760 mmHg 59%
    09:00 +19°C° 0 mm 2 mps 760 mmHg 52%
    10:00 +20°C° 0 mm 2 mps 760 mmHg 49%
    11:00 +21°C° 0 mm 2 mps 760 mmHg 46%
    12:00 +23°C° 0 mm 2 mps 760 mmHg 44%
    13:00 +22°C° 0 mm 3 mps 760 mmHg 45%
    14:00 +22°C° 0 mm 3 mps 760 mmHg 47%
    15:00 +22°C° 0 mm 4 mps 760 mmHg 49%
    16:00 +21°C° 0 mm 4 mps 760 mmHg 52%
    17:00 +20°C° 0 mm 4 mps 760 mmHg 56%
    18:00 +20°C° 0 mm 4 mps 760 mmHg 59%
    19:00 +18°C° 0 mm 4 mps 760 mmHg 64%
    20:00 +17°C° 0 mm 3 mps 761 mmHg 68%
    21:00 +16°C° 0 mm 3 mps 761 mmHg 72%
    22:00 +14°C° 0 mm 3 mps 761 mmHg 72%
    23:00 +13°C° 0 mm 3 mps 761 mmHg 72%

    Day after tomorrow, 22 June, Saturday

    Time Temperature Precipitation Wind Pressure Humidity
    00:00 +13°C° 0 mm 2 mps 761 mmHg 72%
    01:00 +13°C° 0 mm 2 mps 760 mmHg 75%
    02:00 +13°C° 0 mm 2 mps 760 mmHg 77%
    03:00 +12°C° 0 mm 2 mps 760 mmHg 79%
    04:00 +13°C° 0 mm 2 mps 760 mmHg 77%
    05:00 +13°C° 0 mm 2 mps 760 mmHg 75%
    06:00 +13°C° 0 mm 3 mps 760 mmHg 72%
    07:00 +16°C° 0 mm 3 mps 760 mmHg 68%
    08:00 +18°C° 0 mm 3 mps 760 mmHg 63%
    09:00 +20°C° 0 mm 3 mps 760 mmHg 59%
    10:00 +21°C° 0 mm 3 mps 759 mmHg 55%
    11:00 +24°C° 0 mm 3 mps 759 mmHg 50%
    12:00 +25°C° 0 mm 3 mps 759 mmHg 46%
    13:00 +25°C° 0 mm 3 mps 758 mmHg 47%
    14:00 +26°C° 0 mm 3 mps 758 mmHg 48%
    15:00 +26°C° 0 mm 3 mps 758 mmHg 48%
    16:00 +26°C° 0 mm 3 mps 758 mmHg 52%
    17:00 +25°C° 0 mm 3 mps 758 mmHg 56%
    18:00 +25°C° 0 mm 3 mps 757 mmHg 60%
    19:00 +24°C° 0 mm 2 mps 758 mmHg 65%
    20:00 +23°C° 0 mm 2 mps 758 mmHg 70%
    21:00 +20°C° 0 mm 2 mps 758 mmHg 74%
    22:00 +20°C° 0 mm 2 mps 758 mmHg 77%
    23:00 +19°C° 0 mm 2 mps 758 mmHg 79%

    23 June, Sunday

    Time Temperature Precipitation Wind Pressure Humidity
    00:00 +19°C° 0 mm 2 mps 757 mmHg 82%
    01:00 +18°C° 0 mm 2 mps 757 mmHg 83%
    02:00 +18°C° 0 mm 2 mps 757 mmHg 84%
    03:00 +18°C° 0 mm 2 mps 757 mmHg 85%
    04:00 +18°C° 0 mm 2 mps 757 mmHg 84%
    05:00 +19°C° 0 mm 2 mps 757 mmHg 83%
    06:00 +19°C° 0 mm 2 mps 757 mmHg 82%
    07:00 +21°C° 0 mm 3 mps 757 mmHg 76%
    08:00 +22°C° 0 mm 3 mps 757 mmHg 71%
    09:00 +25°C° 0 mm 3 mps 757 mmHg 65%
    10:00 +26°C° 0 mm 4 mps 757 mmHg 60%
    11:00 +27°C° 0 mm 4 mps 757 mmHg 55%
    12:00 +28°C° 0 mm 4 mps 757 mmHg 51%
    13:00 +29°C° 0 mm 4 mps 756 mmHg 52%
    14:00 +29°C° 0 mm 4 mps 756 mmHg 52%
    15:00 +29°C° 0 mm 4 mps 756 mmHg 53%
    16:00 +28°C° 0 mm 4 mps 756 mmHg 56%
    17:00 +28°C° 0 mm 4 mps 756 mmHg 60%
    18:00 +28°C° 0 mm 3 mps 756 mmHg 63%
    19:00 +27°C° 0 mm 3 mps 756 mmHg 68%
    20:00 +25°C° 0 mm 3 mps 756 mmHg 73%
    21:00 +24°C° 0 mm 3 mps 756 mmHg 78%
    22:00 +24°C° 0 mm 3 mps 756 mmHg 80%
    23:00 +22°C° 0 mm 3 mps 756 mmHg 82%

    24 June, Monday

    Time Temperature Precipitation Wind Pressure Humidity
    00:00 +22°C° 0 mm 3 mps 756 mmHg 83%
    01:00 +21°C° 0 mm 2 mps 756 mmHg 84%
    02:00 +21°C° 0 mm 2 mps 756 mmHg 85%
    03:00 +21°C° 0 mm 2 mps 756 mmHg 85%
    04:00 +22°C° 0 mm 1 mps 756 mmHg 82%
    05:00 +23°C° 0 mm 1 mps 757 mmHg 79%
    06:00 +23°C° 0 mm 1 mps 757 mmHg 76%
    07:00 +25°C° 0.1 mm 1 mps 757 mmHg 69%
    08:00 +27°C° 0.1 mm 1 mps 757 mmHg 62%
    09:00 +29°C° 0.1 mm 1 mps 758 mmHg 54%
    10:00 +30°C° 0 mm 2 mps 758 mmHg 50%
    11:00 +31°C° 0 mm 3 mps 758 mmHg 47%
    12:00 +34°C° 0 mm 3 mps 758 mmHg 43%
    13:00 +34°C° 0 mm 3 mps 758 mmHg 44%
    14:00 +34°C° 0 mm 4 mps 757 mmHg 45%
    15:00 +34°C° 0 mm 4 mps 757 mmHg 46%
    16:00 +34°C° 0 mm 4 mps 757 mmHg 50%
    17:00 +33°C° 0 mm 3 mps 757 mmHg 54%
    18:00 +31°C° 0 mm 3 mps 757 mmHg 59%
    19:00 +30°C° 0 mm 3 mps 757 mmHg 65%
    20:00 +29°C° 0 mm 3 mps 758 mmHg 71%
    21:00 +27°C° 0 mm 3 mps 758 mmHg 77%
    22:00 +27°C° 0 mm 3 mps 757 mmHg 78%
    23:00 +26°C° 0 mm 3 mps 757 mmHg 79%

    25 June, Tuesday

    Time Temperature Precipitation Wind Pressure Humidity
    00:00 +25°C° 0 mm 3 mps 757 mmHg 80%
    01:00 +25°C° 0 mm 3 mps 757 mmHg 80%
    02:00 +24°C° 0 mm 3 mps 756 mmHg 80%
    03:00 +24°C° 0 mm 3 mps 756 mmHg 80%
    04:00 +24°C° 0 mm 3 mps 756 mmHg 78%
    05:00 +25°C° 0 mm 3 mps 756 mmHg 75%
    06:00 +25°C° 0 mm 3 mps 756 mmHg 72%
    07:00 +27°C° 0 mm 3 mps 756 mmHg 67%
    08:00 +28°C° 0 mm 3 mps 757 mmHg 61%
    09:00 +30°C° 0 mm 3 mps 757 mmHg 56%
    10:00 +31°C° 0 mm 3 mps 757 mmHg 52%
    11:00 +34°C° 0 mm 3 mps 757 mmHg 47%
    12:00 +35°C° 0 mm 3 mps 757 mmHg 43%
    13:00 +35°C° 0 mm 3 mps 757 mmHg 42%
    14:00 +36°C° 0 mm 3 mps 757 mmHg 41%
    15:00 +36°C° 0 mm 3 mps 758 mmHg 39%
    16:00 +36°C° 0 mm 3 mps 758 mmHg 43%
    17:00 +35°C° 0 mm 3 mps 758 mmHg 46%
    18:00 +34°C° 0 mm 2 mps 758 mmHg 49%
    19:00 +31°C° 0 mm 2 mps 758 mmHg 54%
    20:00 +30°C° 0 mm 1 mps 759 mmHg 59%
    21:00 +28°C° 0 mm 1 mps 759 mmHg 64%
    22:00 +27°C° 0 mm 1 mps 760 mmHg 66%
    23:00 +27°C° 0 mm 1 mps 760 mmHg 68%
    Show more